[[{"header":{"parameterUnit":"m.s-1","parameterCategory":2,"la1":30.2991,"la2":30.254,"lo1":-89.0895,"lo2":-89.0444,"dy":0.0017,"dx":0.0017,"nx":28,"ny":28,"refTime":"2025-03-07T03:00:00:Z","depth":"0","parameterNumber":2,"parameterNumberName":"U-component_of_CURRENTS"},"data":[0,0,0,0,0,0,0,0,0,0,0,0,0,0,0,0,0,0,0,0,0,0,0,0,0,0,0,0,0,0,0,0,0,0,0,0,0,0,0,0,0,0,0,0,0,0,0,0,0,0,0,0,0,0,0,0,0,0,0.3346,0.3346,0,0.337,0.337,0.337,0.3356,0.3355,0.3355,0.3354,0.3389,0.3391,0.3392,0,0,0,0,0,0,0,0,0,0,0,0,0,0.3335,0.3335,0.3346,0.3346,0.3347,0.337,0.337,0.337,0.3356,0.3355,0.3355,0.3354,0.3389,0.3391,0.3392,0,0,0,0,0,0,0,0,0,0,0,0,0,0.3346,0.3335,0.3345,0.3344,0.3344,0.337,0.337,0.337,0.3356,0.3355,0.3355,0.3354,0.3388,0.339,0.3392,0.342,0,0,0.3399,0.34,0,0,0,0,0,0,0,0,0.3345,0.3346,0.3344,0.3344,0.3344,0.3361,0.3379,0.3388,0.3356,0.3349,0.3354,0.3354,0.3383,0.3385,0.3388,0.3422,0.3423,0.3399,0.34,0.3401,0.3402,0,0,0,0,0,0,0,0.3344,0.3345,0.3353,0.3344,0.3345,0.3359,0.3358,0.3381,0.3369,0.335,0.335,0.3356,0.3383,0.3386,0.3389,0.3424,0.3399,0.3401,0.3402,0.3403,0.3525,0.3527,0,0,0,0,0,0,0.3344,0.3344,0.3352,0.3354,0.3345,0.3359,0.3359,0.3355,0.3368,0.337,0.3356,0.3355,0.3383,0.3387,0.339,0.3483,0.3401,0.3403,0.3404,0.3523,0.3525,0.3527,0,0,0,0,0,0,0.3343,0.3344,0.3351,0.3352,0.3354,0.336,0.3355,0.3356,0.3363,0.3373,0.3374,0.3364,0.3383,0.3387,0.3428,0.3481,0.3404,0.3406,0.352,0.3524,0.3526,0.363,0,0,0,0,0,0,0.3343,0.3343,0.3344,0.3351,0.3354,0.338,0.3356,0.3357,0.3369,0.3367,0.3381,0.3382,0.3382,0.3426,0.3431,0.3483,0.3407,0.3518,0.3522,0.3525,0.3624,0.3636,0.3646,0,0,0,0,0,0.3342,0.3354,0.3344,0.3345,0.3353,0.3381,0.3384,0.3385,0.337,0.3385,0.3397,0.3382,0.3453,0.3429,0.3434,0.3489,0.3516,0.3521,0.3525,0.3619,0.3633,0.3646,0,0,0,0,0,0,0.3367,0.3354,0.3343,0.3354,0.3369,0.338,0.3398,0.3391,0.3411,0.3413,0.3408,0.3413,0.3468,0.3462,0.3435,0.3533,0.3482,0.3488,0.3552,0.3565,0.3576,0.3614,0.3409,0,0,0,0,0,0.3368,0.3364,0.3367,0.3381,0.3387,0.339,0.3402,0.3405,0.3421,0.3427,0.3435,0.3453,0.3492,0.3513,0.3534,0.359,0.3632,0.3627,0.3638,0.3648,0.3682,0.3772,0.3796,0.3542,0.3542,0.3542,0,0,0.3386,0.3377,0.3378,0.3384,0.3394,0.3432,0.3395,0.3424,0.3469,0.3431,0.3489,0.349,0.3513,0.3577,0.3602,0.358,0.3748,0.3653,0.3662,0.3691,0.3779,0.3804,0.3827,0.3545,0.3545,0.3544,0,0,0.3427,0.3409,0.3423,0.3439,0.3456,0.3468,0.3477,0.3491,0.3508,0.3556,0.3552,0.3595,0.3623,0.3672,0.3697,0.3785,0.3799,0.3774,0.3873,0.396,0.3983,0.4003,0.4119,0.4149,0.3786,0.3787,0.3787,0,0.3462,0.346,0.3439,0.3469,0.3496,0.3488,0.3535,0.3565,0.3593,0.3629,0.3587,0.3674,0.3685,0.3802,0.3832,0.3818,0.3868,0.382,0.3978,0.3998,0.4017,0.4131,0.4163,0.3792,0.3792,0.3791,0.379,0,0.3507,0.3521,0.3539,0.3567,0.36,0.3638,0.3674,0.3713,0.3718,0.3745,0.3829,0.384,0.3896,0.3905,0.39,0.4042,0.4038,0.3977,0.3948,0.405,0.4163,0.4194,0.38,0.3798,0.3796,0.3795,0,0,0.3549,0.3568,0.3574,0.3597,0.365,0.3681,0.3776,0.3855,0.3927,0.3944,0.4043,0.4099,0.4088,0.4117,0.4111,0.419,0.4372,0.4148,0.4149,0.4274,0.4598,0.4488,0.4511,0.4329,0.4334,0.4338,0.4636,0,0.3595,0.3647,0.3657,0.3737,0.3769,0.3812,0.39,0.3978,0.4034,0.4129,0.4167,0.4246,0.4175,0.4208,0.4278,0.4351,0.4453,0.43,0.4473,0.448,0.4377,0.4542,0.4256,0.4486,0.4665,0.4671,0.4674,0,0.3624,0.3653,0.3721,0.3801,0.3824,0.3882,0.4016,0.4097,0.4241,0.4289,0.4374,0.4399,0.4544,0.4439,0.4642,0.4543,0.4593,0.4634,0.4645,0.4529,0.4426,0.4406,0.4535,0.4392,0.4721,0.4718,0.4714,0,0.3617,0.3697,0.3744,0.3771,0.387,0.3926,0.3995,0.4136,0.4237,0.4402,0.4496,0.4617,0.4709,0.4784,0.4842,0.477,0.5051,0.4958,0.4921,0.4915,0.4703,0.4667,0.4717,0.5117,0.5116,0.5116,0.5115,0,0.3636,0.3675,0.3736,0.3759,0.3852,0.3922,0.4055,0.4149,0.4323,0.4474,0.4564,0.4706,0.4797,0.4937,0.4956,0.5049,0.5147,0.5003,0.4998,0.473,0.4696,0.458,0.4529,0.5127,0.5124,0.5122,0.512,0,0.3613,0.3645,0.3709,0.3805,0.3838,0.3905,0.4075,0.4201,0.4346,0.4557,0.4625,0.4845,0.5031,0.5107,0.5278,0.5209,0.5141,0.5288,0.4981,0.4932,0.4711,0.4676,0.4648,0.4519,0.5334,0.5333,0.5333,0,0.3608,0.3629,0.3723,0.3783,0.3824,0.3933,0.404,0.4192,0.4342,0.4635,0.4757,0.4995,0.5149,0.5355,0.5289,0.5344,0.5163,0.5091,0.4885,0.472,0.4681,0.4522,0.4403,0.4679,0.4673,0.4668,0.4664,0,0.3624,0.3646,0.3708,0.3815,0.3912,0.4019,0.4171,0.4268,0.4485,0.4657,0.4902,0.504,0.5215,0.5129,0.5155,0.5126,0.4809,0.4992,0.4895,0.4258,0.4019,0.3879,0.45,0.4621,0.4625,0.4628,0.463,0.4632,0.3652,0.3699,0.3785,0.389,0.3994,0.4094,0.4139,0.4312,0.4483,0.4655,0.4877,0.4938,0.4904,0.4897,0.4852,0.4523,0.4587,0.4303,0.4318,0.4207,0.3929,0.4475,0.4515,0.4518,0.4522,0.4524,0.4527,0,0.3702,0.3767,0.3873,0.3972,0.4063,0.4104,0.4238,0.4247,0.4366,0.4494,0.4636,0.4494,0.4394,0.4298,0.4029,0.3835,0.3663,0.3716,0.3415,0.3365,0.3916,0.3724,0.3499,0.3499,0.3499,0.3499,0.35,0.35,0.3743,0.3835,0.3886,0.4018,0.4073,0.4082,0.4107,0.4101,0.4128,0.4018,0.3865,0.386,0.3822,0.372,0.3437,0.3338,0.3096,0.293,0.3028,0.3381,0.3435,0.3486,0.3292,0.298,0.2979,0.2248,0.2242,0.2238]},{"header":{"parameterUnit":"m.s-1","parameterCategory":2,"la1":30.2991,"la2":30.254,"lo1":-89.0895,"lo2":-89.0444,"dy":0.0017,"dx":0.0017,"nx":28,"ny":28,"refTime":"2025-03-07T03:00:00:Z","depth":"0","parameterNumber":3,"parameterNumberName":"V-component_of_CURRENTS"},"data":[0,0,0,0,0,0,0,0,0,0,0,0,0,0,0,0,0,0,0,0,0,0,0,0,0,0,0,0,0,0,0,0,0,0,0,0,0,0,0,0,0,0,0,0,0,0,0,0,0,0,0,0,0,0,0,0,0,0,0.0139,0.0139,0,0.0083,0.0082,0.0081,0.0032,0.0031,0.0031,0.0031,-0.0038,-0.004,-0.0041,0,0,0,0,0,0,0,0,0,0,0,0,0,0.0147,0.0148,0.0139,0.0139,0.0138,0.0083,0.0082,0.0081,0.0032,0.0031,0.0031,0.003,-0.0038,-0.0039,-0.0041,0,0,0,0,0,0,0,0,0,0,0,0,0,0.0121,0.0148,0.0139,0.0109,0.0105,0.0083,0.0082,0.0081,0.0032,0.0031,0.0031,0.003,-0.0037,-0.0039,-0.0041,-0.0044,0,0,-0.0048,-0.0049,0,0,0,0,0,0,0,0,0.0122,0.012,0.0114,0.0111,0.0107,0.0066,0.006,0.0039,0.0032,0.0057,0.0031,0.003,-0.0003,-0.0008,-0.002,-0.0047,-0.005,-0.0049,-0.005,-0.0051,-0.0051,0,0,0,0,0,0,0,0.0124,0.0122,0.0115,0.0113,0.0109,0.0079,0.0074,0.0055,0.0029,0.0055,0.0052,0.005,-0.0005,-0.0018,-0.0022,-0.0051,-0.0048,-0.005,-0.0052,-0.0053,-0.008,-0.0079,0,0,0,0,0,0,0.014,0.0124,0.0116,0.0113,0.0116,0.0079,0.0074,0.0078,0.0029,0.0022,0.005,0.0048,-0.0014,-0.0019,-0.0025,-0.0009,-0.0051,-0.0053,-0.0054,-0.008,-0.0079,-0.0079,0,0,0,0,0,0,0.014,0.014,0.0119,0.0119,0.0114,0.008,0.0084,0.0077,0.0068,0.0026,0.0018,0.0049,-0.0014,-0.0022,-0.0035,-0.0013,-0.0054,-0.0056,-0.0081,-0.008,-0.0079,0.0008,0,0,0,0,0,0,0.0141,0.014,0.0145,0.012,0.0115,0.0119,0.0085,0.0076,0.0068,0.0064,0.0023,0.0015,-0.0015,-0.0032,-0.0038,-0.0017,-0.0058,-0.0082,-0.008,-0.0079,0.0004,0.0012,0.0018,0,0,0,0,0,0.0141,0.0158,0.0146,0.0145,0.0124,0.012,0.0115,0.0086,0.0069,0.0074,0.0042,0.0017,-0.0029,-0.0033,-0.004,-0.0019,-0.0082,-0.0081,-0.0079,0.0001,0.001,0.0018,0,0,0,0,0,0,0.016,0.0154,0.014,0.0153,0.0142,0.0113,0.0113,0.0095,0.0073,0.0066,0.0024,0.0015,0.0008,-0.0017,-0.0021,-0.0025,-0.0059,-0.0059,0.0004,0.0013,0.0019,0.0048,-0.006,0,0,0,0,0,0.0169,0.018,0.0165,0.0173,0.0172,0.0143,0.0136,0.012,0.0098,0.0087,0.0059,0.0029,0.0008,0.0002,-0.0026,-0.0022,-0.0022,-0.0014,-0.0007,-0.0001,0.0017,0.0028,0.0039,-0.0074,-0.0074,-0.0074,0,0,0.0176,0.0175,0.0179,0.0178,0.0164,0.0178,0.0137,0.0136,0.0148,0.0085,0.0089,0.0049,0.0012,0.001,0.0006,-0.0006,0.0034,0.0001,0.0006,0.0021,0.0031,0.0042,0.0052,-0.0073,-0.0073,-0.0073,0,0,0.0208,0.0199,0.0223,0.0221,0.0213,0.0202,0.0208,0.0187,0.0178,0.0174,0.0132,0.0113,0.0079,0.0064,0.005,0.0081,0.0064,0.0067,0.0134,0.0146,0.0156,0.0165,0.0197,0.0208,0.0078,0.0078,0.0079,0,0.0217,0.0249,0.0228,0.025,0.026,0.0222,0.0254,0.0241,0.0217,0.0225,0.0187,0.0151,0.0109,0.0126,0.0126,0.01,0.0108,0.0108,0.0158,0.0166,0.0174,0.0204,0.0215,0.0083,0.0082,0.0082,0.0081,0,0.0269,0.0292,0.0307,0.0329,0.0334,0.0353,0.0341,0.0345,0.0324,0.0312,0.0313,0.0255,0.0237,0.0218,0.0177,0.0212,0.0202,0.0161,0.0143,0.0191,0.022,0.023,0.0089,0.0087,0.0086,0.0085,0,0,0.0299,0.034,0.0344,0.0378,0.0381,0.0399,0.0422,0.0445,0.0476,0.0434,0.0476,0.0415,0.0377,0.0359,0.0309,0.0314,0.0362,0.0264,0.0263,0.0309,0.0411,0.037,0.0377,0.0329,0.0331,0.0332,0.0418,0,0.035,0.0425,0.0425,0.0494,0.0536,0.0518,0.055,0.0559,0.0551,0.0578,0.0527,0.0535,0.0434,0.0432,0.0416,0.0382,0.0389,0.0344,0.0347,0.0348,0.0315,0.0387,0.0365,0.0436,0.0427,0.0428,0.043,0,0.0405,0.0454,0.0536,0.0604,0.062,0.0649,0.0706,0.0732,0.0745,0.074,0.0727,0.0683,0.0684,0.0584,0.0561,0.0539,0.048,0.0446,0.0448,0.0387,0.0325,0.0381,0.0453,0.0265,0.0444,0.0443,0.0442,0,0.0459,0.0534,0.0611,0.063,0.0691,0.0726,0.0758,0.0782,0.0826,0.0854,0.0889,0.0854,0.0868,0.0788,0.0688,0.0635,0.0673,0.0591,0.0506,0.0504,0.0475,0.0466,0.0376,0.0576,0.0576,0.0576,0.0576,0,0.0523,0.0583,0.0644,0.0686,0.0781,0.0796,0.0888,0.0908,0.0958,0.1042,0.0977,0.1043,0.0919,0.0906,0.0776,0.0694,0.0742,0.0547,0.0529,0.0504,0.0498,0.032,0.0208,0.0579,0.0578,0.0578,0.0577,0,0.057,0.0607,0.0703,0.0783,0.0809,0.0879,0.097,0.1037,0.1077,0.1187,0.121,0.1222,0.1227,0.1098,0.1015,0.0838,0.0638,0.0694,0.0684,0.066,0.0361,0.0256,0.0159,0.0078,0.062,0.062,0.0619,0,0.0607,0.066,0.0769,0.0827,0.0864,0.096,0.1026,0.1086,0.1166,0.1307,0.1376,0.1424,0.1495,0.1362,0.1092,0.0905,0.0687,0.0691,0.0559,0.0368,0.0237,0.0149,0.0081,0.0572,0.0572,0.0571,0.0571,0,0.0678,0.0709,0.0787,0.0896,0.0978,0.1084,0.1187,0.1273,0.1374,0.1505,0.1689,0.1778,0.1659,0.1485,0.118,0.0996,0.0535,0.067,0.0479,0.0206,0.01,0.0006,0.0503,0.0566,0.0566,0.0566,0.0567,0.0567,0.0723,0.0784,0.0871,0.0975,0.1072,0.1196,0.1308,0.1455,0.1639,0.1894,0.1941,0.2159,0.1791,0.1405,0.1122,0.0518,0.0526,0.0303,0.0204,0.0142,0.0013,0.0502,0.0521,0.0521,0.0522,0.0522,0.0522,0,0.0773,0.0836,0.0939,0.1067,0.1174,0.1216,0.1407,0.1562,0.1823,0.2116,0.2336,0.228,0.1841,0.1329,0.0509,0.0113,-0.0043,-0.0111,-0.025,-0.0288,0.0165,0.0106,0.0026,0.0027,0.0027,0.0027,0.0027,0.0027,0.0803,0.0894,0.0941,0.1117,0.1212,0.1386,0.151,0.1781,0.2037,0.2417,0.2592,0.2698,0.2199,0.078,-0.014,-0.0331,-0.0622,-0.068,-0.0796,-0.0519,-0.0489,-0.046,-0.0542,-0.0756,-0.0757,-0.1216,-0.1221,-0.1224]}],[{"header":{"parameterUnit":"m.s-1","parameterCategory":2,"la1":30.2991,"la2":30.254,"lo1":-89.0895,"lo2":-89.0444,"dy":0.0017,"dx":0.0017,"nx":28,"ny":28,"refTime":"2025-03-07T03:00:00:Z","depth":"2","parameterNumber":2,"parameterNumberName":"U-component_of_CURRENTS"},"data":[0,0,0,0,0,0,0,0,0,0,0,0,0,0,0,0,0,0,0,0,0,0,0,0,0,0,0,0,0,0,0,0,0,0,0,0,0,0,0,0,0,0,0,0,0,0,0,0,0,0,0,0,0,0,0,0,0,0,0.2566,0.2567,0,0.2591,0.2591,0.2591,0.2593,0.2593,0.2593,0.2593,0.2607,0.2608,0.2608,0,0,0,0,0,0,0,0,0,0,0,0,0,0.2544,0.2544,0.2566,0.2567,0.2567,0.2591,0.2591,0.2591,0.2593,0.2593,0.2593,0.2592,0.2607,0.2608,0.2608,0,0,0,0,0,0,0,0,0,0,0,0,0,0.2558,0.2544,0.2566,0.2572,0.2573,0.2591,0.2591,0.2591,0.2593,0.2593,0.2593,0.2592,0.2607,0.2608,0.2609,0.2617,0,0,0.2611,0.2611,0,0,0,0,0,0,0,0,0.2557,0.2558,0.2571,0.2572,0.2573,0.259,0.2589,0.26,0.2593,0.2584,0.2593,0.2592,0.2602,0.2603,0.2606,0.2617,0.2618,0.2611,0.2611,0.2612,0.2612,0,0,0,0,0,0,0,0.2556,0.2557,0.2574,0.2572,0.2573,0.2582,0.2583,0.2591,0.2592,0.2584,0.2585,0.2591,0.2602,0.2605,0.2606,0.2618,0.2611,0.2612,0.2612,0.2612,0.2694,0.2695,0,0,0,0,0,0,0.2555,0.2556,0.2574,0.2575,0.2566,0.2582,0.2584,0.2583,0.2592,0.2594,0.2591,0.2591,0.2604,0.2605,0.2607,0.2668,0.2612,0.2612,0.2613,0.2692,0.2694,0.2696,0,0,0,0,0,0,0.2555,0.2556,0.2573,0.2568,0.2571,0.2583,0.2582,0.2584,0.26,0.2597,0.2598,0.2606,0.2604,0.2606,0.2632,0.2666,0.2613,0.2613,0.269,0.2693,0.2695,0.2757,0,0,0,0,0,0,0.2554,0.2556,0.2562,0.2568,0.2571,0.2595,0.2583,0.2585,0.2603,0.2604,0.2611,0.2611,0.2604,0.2631,0.2632,0.2666,0.2614,0.2688,0.2691,0.2694,0.2752,0.2761,0.2768,0,0,0,0,0,0.2553,0.2562,0.2562,0.2565,0.2577,0.2596,0.2599,0.2605,0.2605,0.2618,0.2626,0.2612,0.2653,0.2633,0.2634,0.2669,0.2686,0.269,0.2694,0.2749,0.2759,0.2768,0,0,0,0,0,0,0.2557,0.2563,0.2563,0.2574,0.259,0.2597,0.2613,0.2616,0.2632,0.2637,0.2629,0.2631,0.2671,0.2661,0.264,0.2703,0.2669,0.2674,0.271,0.272,0.2728,0.2749,0.2615,0,0,0,0,0,0.256,0.2569,0.2578,0.259,0.2598,0.2608,0.2619,0.2626,0.2638,0.2646,0.2651,0.2664,0.2687,0.2695,0.2711,0.2739,0.2764,0.2765,0.2773,0.2779,0.2799,0.288,0.2897,0.2709,0.2709,0.2709,0,0,0.2565,0.2571,0.2576,0.2592,0.2603,0.2626,0.2615,0.2639,0.2664,0.2645,0.2683,0.2694,0.2703,0.2741,0.2758,0.2736,0.2844,0.2784,0.279,0.2807,0.2886,0.2904,0.2921,0.2711,0.2711,0.271,0,0,0.258,0.2586,0.2598,0.2614,0.2638,0.265,0.2662,0.268,0.2694,0.2727,0.273,0.2767,0.2782,0.2808,0.282,0.2882,0.2888,0.2882,0.2935,0.3012,0.3029,0.3044,0.3089,0.3107,0.2881,0.2881,0.2881,0,0.2588,0.26,0.2608,0.2627,0.2646,0.2664,0.2688,0.2711,0.2738,0.2766,0.2747,0.2817,0.2821,0.2888,0.2911,0.2902,0.2936,0.2894,0.3024,0.304,0.3054,0.3097,0.3116,0.2884,0.2884,0.2883,0.2883,0,0.2607,0.2625,0.2638,0.2667,0.2692,0.2717,0.2748,0.2781,0.28,0.283,0.2897,0.2908,0.2956,0.296,0.2953,0.3057,0.3045,0.3029,0.3001,0.3077,0.3116,0.3136,0.2889,0.2888,0.2887,0.2886,0,0,0.2598,0.2641,0.2646,0.2663,0.2713,0.2731,0.279,0.2848,0.2897,0.2933,0.2996,0.3046,0.307,0.3087,0.3088,0.3145,0.3266,0.3134,0.3136,0.3179,0.3429,0.3332,0.3343,0.3279,0.3283,0.3286,0.3412,0,0.261,0.2644,0.267,0.2716,0.2736,0.278,0.2829,0.2892,0.2946,0.3015,0.3061,0.3125,0.3114,0.314,0.3206,0.3262,0.3322,0.3233,0.3348,0.3351,0.3258,0.3364,0.3076,0.3157,0.3431,0.3434,0.3436,0,0.2611,0.2638,0.2675,0.2733,0.2747,0.2785,0.2873,0.2924,0.3038,0.3081,0.3171,0.3213,0.3325,0.3281,0.3444,0.3392,0.3427,0.345,0.3455,0.3361,0.3291,0.3128,0.3182,0.3468,0.3466,0.3463,0.3461,0,0.2579,0.2637,0.2666,0.2685,0.2757,0.2792,0.2844,0.2951,0.3024,0.3142,0.3216,0.3332,0.3412,0.3489,0.3557,0.3523,0.3706,0.3663,0.3603,0.3594,0.337,0.3335,0.3774,0.3774,0.3774,0.3774,0.3773,0,0.2565,0.2591,0.2654,0.2667,0.2716,0.2778,0.2863,0.2926,0.3062,0.3152,0.3261,0.3354,0.3477,0.3586,0.3613,0.3682,0.3768,0.3645,0.3639,0.3379,0.3346,0.3626,0.3607,0.3778,0.3777,0.3776,0.3776,0,0.2519,0.2561,0.26,0.2675,0.2698,0.2738,0.2871,0.2946,0.3074,0.3194,0.3244,0.344,0.3578,0.3664,0.3793,0.3763,0.3813,0.3799,0.3469,0.3422,0.3631,0.3614,0.377,0.3768,0.3767,0.3765,0.3764,0,0.2492,0.2506,0.2584,0.2607,0.2643,0.272,0.2779,0.2927,0.3004,0.3226,0.3273,0.3479,0.3568,0.3738,0.3721,0.3754,0.3814,0.3484,0.3366,0.3662,0.3641,0.3626,0.3612,0.3089,0.3083,0.3077,0.3073,0,0.2447,0.2483,0.2514,0.2555,0.2614,0.2677,0.2763,0.2816,0.2977,0.3085,0.3225,0.333,0.3514,0.3441,0.3494,0.3464,0.3455,0.3375,0.3811,0.3126,0.3028,0.3004,0.3011,0.3025,0.303,0.3033,0.3036,0.3038,0.2409,0.2423,0.2461,0.249,0.2562,0.2584,0.2598,0.2676,0.2755,0.2843,0.3038,0.3105,0.3201,0.3158,0.3069,0.3001,0.3239,0.3078,0.3091,0.3111,0.3002,0.2905,0.2857,0.2861,0.2864,0.2867,0.287,0,0.2362,0.2378,0.2388,0.2402,0.2422,0.2511,0.2557,0.25,0.2502,0.2631,0.2723,0.2568,0.2567,0.2661,0.2486,0.2484,0.243,0.2377,0.2277,0.2329,0.2374,0.2222,0.1873,0.187,0.1866,0.1863,0,0,0.2341,0.2315,0.2301,0.2254,0.2287,0.2262,0.2276,0.2204,0.2225,0.2149,0.22,0.2464,0.2597,0.2207,0.2156,0.198,0.213,0.19,0.2708,0.2644,0.2684,0.2798,0.2627,0,0,0,0,0]},{"header":{"parameterUnit":"m.s-1","parameterCategory":2,"la1":30.2991,"la2":30.254,"lo1":-89.0895,"lo2":-89.0444,"dy":0.0017,"dx":0.0017,"nx":28,"ny":28,"refTime":"2025-03-07T03:00:00:Z","depth":"2","parameterNumber":3,"parameterNumberName":"V-component_of_CURRENTS"},"data":[0,0,0,0,0,0,0,0,0,0,0,0,0,0,0,0,0,0,0,0,0,0,0,0,0,0,0,0,0,0,0,0,0,0,0,0,0,0,0,0,0,0,0,0,0,0,0,0,0,0,0,0,0,0,0,0,0,0,0.0115,0.0114,0,0.0068,0.0068,0.0067,0.003,0.0029,0.0029,0.0029,-0.0024,-0.0025,-0.0026,0,0,0,0,0,0,0,0,0,0,0,0,0,0.0123,0.0123,0.0115,0.0114,0.0114,0.0069,0.0068,0.0067,0.003,0.0029,0.0029,0.0029,-0.0023,-0.0025,-0.0026,0,0,0,0,0,0,0,0,0,0,0,0,0,0.0101,0.0123,0.0115,0.0091,0.0088,0.0069,0.0068,0.0067,0.003,0.0029,0.0029,0.0029,-0.0023,-0.0025,-0.0026,-0.003,0,0,-0.0032,-0.0033,0,0,0,0,0,0,0,0,0.0103,0.0101,0.0095,0.0092,0.009,0.0056,0.0051,0.0035,0.003,0.0051,0.0029,0.0029,0.0003,-0.0001,-0.001,-0.0032,-0.0034,-0.0032,-0.0033,-0.0034,-0.0034,0,0,0,0,0,0,0,0.0104,0.0102,0.0095,0.0094,0.0091,0.0066,0.0063,0.0048,0.0028,0.0049,0.0046,0.0043,0.0002,-0.0009,-0.0012,-0.0035,-0.0032,-0.0033,-0.0034,-0.0035,-0.0057,-0.0057,0,0,0,0,0,0,0.0116,0.0104,0.0096,0.0094,0.0097,0.0067,0.0063,0.0066,0.0029,0.0023,0.0044,0.0042,-0.0005,-0.001,-0.0014,-0.0005,-0.0034,-0.0035,-0.0036,-0.0058,-0.0057,-0.0056,0,0,0,0,0,0,0.0116,0.0116,0.0098,0.0098,0.0095,0.0067,0.0071,0.0065,0.0058,0.0025,0.0019,0.0043,-0.0006,-0.0011,-0.0023,-0.0008,-0.0036,-0.0038,-0.0058,-0.0057,-0.0057,0.0003,0,0,0,0,0,0,0.0117,0.0116,0.0121,0.01,0.0095,0.0097,0.0071,0.0065,0.0057,0.0054,0.0022,0.0017,-0.0007,-0.002,-0.0024,-0.0011,-0.0039,-0.0059,-0.0058,-0.0057,0.0001,0.0006,0.001,0,0,0,0,0,0.0117,0.013,0.0121,0.012,0.0103,0.0098,0.0093,0.0071,0.0058,0.0061,0.0036,0.0018,-0.0018,-0.0021,-0.0026,-0.0013,-0.0059,-0.0058,-0.0057,-0.0002,0.0005,0.001,0,0,0,0,0,0,0.0132,0.0127,0.0117,0.0126,0.0116,0.0092,0.0092,0.0077,0.006,0.0055,0.0023,0.0016,0.0009,-0.0009,-0.0012,-0.0017,-0.0041,-0.0041,0.0003,0.0009,0.0014,0.0034,-0.0041,0,0,0,0,0,0.0139,0.0149,0.0136,0.0142,0.014,0.0116,0.011,0.0097,0.008,0.0071,0.0049,0.0026,0.0009,0.0004,-0.0017,-0.0016,-0.0036,-0.0011,-0.0006,-0.0002,0.0011,-0.0008,-0.0004,-0.0053,-0.0053,-0.0053,0,0,0.0144,0.0143,0.0147,0.0146,0.0134,0.0143,0.0112,0.0109,0.0117,0.0069,0.0071,0.004,0.0012,0.0008,0.0005,-0.0004,-0.0,-0.0001,0.0003,0.0014,-0.0007,-0.0002,0.0002,-0.0052,-0.0052,-0.0053,0,0,0.0167,0.0161,0.018,0.018,0.0174,0.0162,0.0166,0.0148,0.014,0.0136,0.0103,0.0085,0.006,0.0045,0.0033,0.0054,0.0022,0.0046,0.0093,0.0075,0.0079,0.0082,0.0059,0.006,0.0054,0.0054,0.0054,0,0.0173,0.0198,0.0183,0.0203,0.0211,0.0177,0.0201,0.0189,0.0169,0.0171,0.0145,0.0109,0.008,0.0082,0.0086,0.0067,0.0049,0.0074,0.0082,0.0085,0.0087,0.0063,0.0063,0.0057,0.0057,0.0056,0.0056,0,0.0215,0.0234,0.0245,0.0263,0.0267,0.0282,0.0269,0.0268,0.0249,0.0236,0.0227,0.0181,0.0163,0.0148,0.0122,0.013,0.0108,0.0086,0.007,0.0096,0.0068,0.0067,0.0061,0.006,0.0059,0.0058,0,0,0.0234,0.027,0.0274,0.0302,0.0305,0.0318,0.033,0.0339,0.0359,0.0319,0.034,0.0291,0.026,0.0245,0.0207,0.019,0.0181,0.0152,0.015,0.0135,0.0139,0.0102,0.0097,0.0161,0.0161,0.0161,0.0111,0,0.0272,0.0333,0.0336,0.0391,0.0423,0.0407,0.0429,0.0429,0.0416,0.0425,0.0371,0.0368,0.03,0.0294,0.0264,0.0211,0.0183,0.0197,0.0111,0.0109,0.0077,0.0096,0.0121,0.0077,0.011,0.0109,0.0109,0,0.0315,0.0355,0.0419,0.0476,0.0488,0.0511,0.0548,0.0565,0.0559,0.0551,0.0524,0.0477,0.0445,0.0381,0.0295,0.0308,0.0229,0.0175,0.0171,0.0119,0.0071,0.0056,0.0074,0.0107,0.0108,0.0108,0.0108,0,0.0353,0.0416,0.0474,0.0493,0.0542,0.0569,0.0593,0.0603,0.0647,0.0634,0.0661,0.0586,0.0577,0.0467,0.0338,0.0321,0.024,0.0201,0.0088,0.0084,0.008,0.0076,0.0132,0.0132,0.0132,0.0132,0.0132,0,0.0401,0.0449,0.05,0.0536,0.0614,0.0626,0.0707,0.0712,0.0754,0.0834,0.0734,0.0773,0.0601,0.0524,0.0381,0.0239,0.0267,0.0104,0.0073,0.01,0.0098,0.0104,0.0102,0.013,0.0131,0.0131,0.0131,0,0.0434,0.0464,0.0544,0.0611,0.0636,0.0695,0.0798,0.0868,0.0884,0.0985,0.099,0.093,0.083,0.0639,0.0471,0.0317,0.0168,0.0102,0.014,0.0114,0.0011,0.0012,-0.0021,-0.0023,-0.0024,-0.0025,-0.0026,0,0.0457,0.05,0.06,0.0662,0.0696,0.079,0.0868,0.0924,0.1024,0.1097,0.1168,0.1082,0.105,0.0764,0.0478,0.021,0.017,0.0043,0.0007,0.0024,-0.0003,0.0001,0.0003,0.0024,0.0023,0.0023,0.0022,0,0.0507,0.0539,0.0609,0.0737,0.0832,0.0955,0.1079,0.119,0.1286,0.1352,0.1441,0.1408,0.113,0.0855,0.0459,0.0277,0.0083,0.0026,0.0051,0.0054,0.0061,0.0036,0.0039,0.0019,0.0019,0.002,0.002,0.002,0.0544,0.0605,0.0704,0.0828,0.0947,0.1128,0.1268,0.1413,0.1573,0.1705,0.1646,0.1587,0.1254,0.075,0.042,0.0062,0.0076,-0.0056,-0.0053,-0.0049,-0.0039,-0.0035,-0.0094,-0.0094,-0.0094,-0.0094,-0.0095,0,0.06,0.0677,0.0794,0.0964,0.1118,0.1172,0.1417,0.1558,0.1771,0.1821,0.1851,0.1514,0.1192,0.0812,0.0283,-0.0034,-0.005,-0.0134,-0.0083,-0.0077,-0.0073,-0.0063,-0.0125,-0.0126,-0.0127,-0.0127,0,0,0.0636,0.0753,0.082,0.1078,0.1214,0.1451,0.1614,0.1793,0.1888,0.193,0.1867,0.1757,0.1295,0.0907,0.0477,0.0177,0.0125,0.0118,0.0176,0.0293,0.0302,0.0003,0.0028,0,0,0,0,0]}],[{"header":{"parameterUnit":"m.s-1","parameterCategory":2,"la1":30.2991,"la2":30.254,"lo1":-89.0895,"lo2":-89.0444,"dy":0.0017,"dx":0.0017,"nx":28,"ny":28,"refTime":"2025-03-07T03:00:00:Z","depth":"4","parameterNumber":2,"parameterNumberName":"U-component_of_CURRENTS"},"data":[0,0,0,0,0,0,0,0,0,0,0,0,0,0,0,0,0,0,0,0,0,0,0,0,0,0,0,0,0,0,0,0,0,0,0,0,0,0,0,0,0,0,0,0,0,0,0,0,0,0,0,0,0,0,0,0,0,0,0.1622,0.1623,0,0.1676,0.1677,0.1677,0.1727,0.1728,0.1729,0.1729,0.1786,0.1786,0.1787,0,0,0,0,0,0,0,0,0,0,0,0,0,0.156,0.1561,0.1622,0.1623,0.1624,0.1676,0.1677,0.1677,0.1727,0.1728,0.1729,0.173,0.1785,0.1786,0.1787,0,0,0,0,0,0,0,0,0,0,0,0,0,0.1596,0.1561,0.1622,0.1656,0.166,0.1676,0.1677,0.1677,0.1727,0.1728,0.1729,0.173,0.1785,0.1786,0.1787,0.1772,0,0,0.1791,0.1792,0,0,0,0,0,0,0,0,0.1594,0.1598,0.165,0.1654,0.1658,0.1698,0.1676,0.171,0.1726,0.17,0.1729,0.1731,0.1757,0.176,0.1765,0.1775,0.1777,0.1791,0.1792,0.1792,0.1793,0,0,0,0,0,0,0,0.1592,0.1596,0.1642,0.1651,0.1656,0.1668,0.1674,0.1682,0.172,0.1702,0.1706,0.1714,0.1759,0.1764,0.1767,0.1778,0.1791,0.1792,0.1793,0.1793,0.189,0.1891,0,0,0,0,0,0,0.1587,0.1594,0.164,0.1644,0.163,0.1668,0.1675,0.1682,0.172,0.1727,0.1713,0.1717,0.1762,0.1766,0.1769,0.1849,0.1792,0.1793,0.1794,0.1888,0.189,0.1892,0,0,0,0,0,0,0.1586,0.1591,0.1638,0.1621,0.1629,0.1669,0.1676,0.1683,0.1726,0.1729,0.1736,0.1754,0.1763,0.1768,0.1813,0.1848,0.1794,0.1795,0.1886,0.1888,0.1891,0.1947,0,0,0,0,0,0,0.1583,0.159,0.1611,0.1621,0.163,0.1671,0.1675,0.1683,0.1728,0.1734,0.1765,0.1769,0.1764,0.1811,0.1814,0.1849,0.1796,0.1883,0.1887,0.189,0.1943,0.1951,0.1959,0,0,0,0,0,0.1581,0.1598,0.1612,0.1618,0.1651,0.1672,0.1678,0.1708,0.1729,0.1751,0.1779,0.177,0.1835,0.1813,0.1816,0.1852,0.1882,0.1886,0.189,0.1939,0.195,0.1959,0,0,0,0,0,0,0.1584,0.1606,0.162,0.1645,0.1669,0.1682,0.1711,0.1729,0.1768,0.1786,0.1789,0.1795,0.1849,0.1844,0.182,0.1892,0.1859,0.1864,0.1896,0.1905,0.1913,0.1918,0.1797,0,0,0,0,0,0.1593,0.1616,0.1634,0.166,0.1675,0.1701,0.1721,0.1741,0.1768,0.1788,0.181,0.1837,0.1861,0.188,0.1897,0.1932,0.194,0.196,0.1968,0.1974,0.1983,0.2032,0.2045,0.1906,0.1906,0.1905,0,0,0.1601,0.1618,0.1633,0.1663,0.1687,0.1711,0.1717,0.1758,0.179,0.1786,0.1849,0.1867,0.1878,0.1921,0.1945,0.1926,0.2019,0.198,0.1985,0.199,0.2038,0.2051,0.2063,0.1908,0.1908,0.1907,0,0,0.1616,0.1647,0.1668,0.1691,0.1732,0.1746,0.1766,0.1801,0.1835,0.1883,0.1896,0.1939,0.1972,0.1989,0.1999,0.2062,0.2061,0.2074,0.2117,0.2165,0.2177,0.2187,0.2216,0.2228,0.2077,0.2077,0.2077,0,0.1629,0.1652,0.1679,0.1703,0.1728,0.1766,0.1792,0.1827,0.1876,0.1906,0.1915,0.1992,0.2003,0.2054,0.208,0.2079,0.2103,0.2077,0.2175,0.2186,0.2195,0.2222,0.2235,0.208,0.208,0.2079,0.2079,0,0.1644,0.1679,0.1697,0.1738,0.177,0.1802,0.1844,0.1894,0.1939,0.1967,0.2044,0.2068,0.2114,0.2127,0.2123,0.22,0.2194,0.2179,0.2148,0.2213,0.2236,0.2249,0.2085,0.2084,0.2083,0.2082,0,0,0.1626,0.1693,0.1703,0.1727,0.1792,0.1811,0.1881,0.1938,0.1985,0.205,0.211,0.2166,0.2195,0.221,0.2222,0.2263,0.2349,0.2259,0.226,0.2282,0.2456,0.2299,0.2297,0.2361,0.2363,0.2365,0.2445,0,0.1632,0.1677,0.1713,0.1764,0.1789,0.185,0.1903,0.1968,0.2027,0.2097,0.2154,0.2214,0.2223,0.2256,0.2306,0.2341,0.2386,0.2329,0.2395,0.2397,0.2245,0.2307,0.2373,0.2454,0.2457,0.2459,0.246,0,0.1626,0.166,0.1709,0.1774,0.1792,0.1834,0.1925,0.1978,0.2083,0.2136,0.2221,0.2263,0.2356,0.2343,0.2458,0.2428,0.2456,0.2472,0.2475,0.2317,0.2262,0.2377,0.2482,0.2481,0.2479,0.2477,0.2476,0,0.1582,0.1651,0.1692,0.1715,0.1798,0.1843,0.1898,0.1998,0.2052,0.2174,0.223,0.2334,0.241,0.2468,0.253,0.2507,0.2637,0.2601,0.2484,0.2473,0.2565,0.2553,0.2677,0.2677,0.2677,0.2677,0.2677,0,0.1554,0.1586,0.168,0.1699,0.1749,0.1825,0.1893,0.1966,0.2081,0.2138,0.2256,0.2322,0.2452,0.2537,0.2563,0.2569,0.2675,0.2502,0.2487,0.2586,0.2576,0.2573,0.256,0.268,0.2679,0.2679,0.2678,0,0.1489,0.1555,0.1595,0.1692,0.1728,0.1764,0.1881,0.1917,0.2056,0.2142,0.2189,0.2357,0.2462,0.2558,0.266,0.2602,0.2617,0.2591,0.2702,0.2691,0.2408,0.2397,0.2449,0.2445,0.244,0.2437,0.2434,0,0.1454,0.1475,0.1573,0.1587,0.1633,0.1708,0.1746,0.189,0.1934,0.2136,0.216,0.2328,0.2416,0.2454,0.2557,0.2594,0.2568,0.2551,0.2461,0.2406,0.2388,0.2384,0.2378,0.2428,0.2427,0.2426,0.2425,0,0.1375,0.1426,0.1454,0.1491,0.1532,0.1564,0.1645,0.1676,0.1834,0.1991,0.2087,0.2156,0.2276,0.2361,0.2421,0.2437,0.2541,0.2507,0.2515,0.243,0.2381,0.2366,0.2365,0.2411,0.2413,0.2414,0.2415,0,0.1311,0.1304,0.1347,0.1363,0.1398,0.1389,0.1458,0.1527,0.161,0.1852,0.1885,0.2074,0.2252,0.2281,0.233,0.2341,0.2295,0.2203,0.2225,0.2242,0.2136,0.204,0.1962,0,0,0,0,0,0.1237,0.1212,0.121,0.1205,0.123,0.1259,0.1362,0.1442,0.1627,0.1643,0.1764,0.1865,0.1966,0.2076,0.2046,0.2211,0.2281,0.2162,0.2181,0.2332,0.2349,0.2243,0,0,0,0,0,0,0.1178,0.1179,0.1164,0.1067,0.104,0.1054,0.1115,0.1242,0.1278,0.1491,0.1571,0.1738,0.1876,0.1967,0.2008,0.2036,0.2004,0.2292,0.2286,0.2323,0.2338,0.2351,0.2248,0,0,0,0,0]},{"header":{"parameterUnit":"m.s-1","parameterCategory":2,"la1":30.2991,"la2":30.254,"lo1":-89.0895,"lo2":-89.0444,"dy":0.0017,"dx":0.0017,"nx":28,"ny":28,"refTime":"2025-03-07T03:00:00:Z","depth":"4","parameterNumber":3,"parameterNumberName":"V-component_of_CURRENTS"},"data":[0,0,0,0,0,0,0,0,0,0,0,0,0,0,0,0,0,0,0,0,0,0,0,0,0,0,0,0,0,0,0,0,0,0,0,0,0,0,0,0,0,0,0,0,0,0,0,0,0,0,0,0,0,0,0,0,0,0,0.0116,0.0116,0,0.0088,0.0088,0.0087,0.0066,0.0066,0.0066,0.0065,0.0034,0.0034,0.0033,0,0,0,0,0,0,0,0,0,0,0,0,0,0.0119,0.0119,0.0116,0.0116,0.0116,0.0088,0.0088,0.0087,0.0066,0.0066,0.0066,0.0065,0.0035,0.0034,0.0033,0,0,0,0,0,0,0,0,0,0,0,0,0,0.0106,0.0119,0.0116,0.0102,0.0101,0.0088,0.0088,0.0087,0.0066,0.0066,0.0066,0.0065,0.0035,0.0034,0.0033,0.0029,0,0,0.0029,0.0029,0,0,0,0,0,0,0,0,0.0107,0.0106,0.0105,0.0103,0.0102,0.0081,0.0077,0.0068,0.0066,0.0078,0.0065,0.0065,0.005,0.0048,0.0042,0.0028,0.0027,0.0029,0.0029,0.0028,0.0028,0,0,0,0,0,0,0,0.0108,0.0107,0.0104,0.0105,0.0103,0.0086,0.0085,0.0075,0.0065,0.0077,0.0076,0.0074,0.0049,0.0043,0.0041,0.0026,0.0029,0.0028,0.0028,0.0027,0.0015,0.0015,0,0,0,0,0,0,0.0115,0.0108,0.0105,0.0103,0.0105,0.0087,0.0085,0.0087,0.0065,0.0062,0.0074,0.0073,0.0045,0.0042,0.004,0.0049,0.0028,0.0027,0.0027,0.0015,0.0015,0.0016,0,0,0,0,0,0,0.0116,0.0116,0.0106,0.0105,0.0103,0.0087,0.009,0.0087,0.0083,0.0063,0.0059,0.0075,0.0045,0.0041,0.0036,0.0047,0.0027,0.0026,0.0014,0.0015,0.0015,0.0058,0,0,0,0,0,0,0.0116,0.0116,0.012,0.0106,0.0104,0.0106,0.009,0.0086,0.0083,0.0081,0.0062,0.0059,0.0044,0.0038,0.0035,0.0045,0.0025,0.0014,0.0015,0.0015,0.0056,0.006,0.0063,0,0,0,0,0,0.0116,0.0125,0.012,0.012,0.011,0.0107,0.0104,0.0091,0.0083,0.0086,0.0072,0.006,0.004,0.0037,0.0034,0.0044,0.0014,0.0014,0.0015,0.0054,0.0059,0.0063,0,0,0,0,0,0,0.0125,0.0124,0.0118,0.0125,0.012,0.0104,0.0105,0.0096,0.0086,0.0084,0.0064,0.006,0.0058,0.0045,0.0043,0.0042,0.0025,0.0025,0.0056,0.006,0.0063,0.0077,0.0024,0,0,0,0,0,0.013,0.0139,0.0131,0.0136,0.0135,0.0121,0.0117,0.0109,0.0099,0.0094,0.0082,0.0068,0.0058,0.0055,0.0042,0.0044,0.002,0.0047,0.0051,0.0054,0.0063,0.0032,0.0034,0.0018,0.0018,0.0018,0,0,0.0134,0.0135,0.0138,0.0139,0.0132,0.014,0.0118,0.0118,0.0125,0.0093,0.0098,0.0078,0.006,0.0059,0.0058,0.0051,0.0044,0.0055,0.0058,0.0065,0.0033,0.0035,0.0036,0.0019,0.0018,0.0018,0,0,0.015,0.0148,0.0162,0.0164,0.0161,0.0154,0.0157,0.0146,0.0142,0.0143,0.0121,0.0109,0.0096,0.0085,0.0078,0.0093,0.0061,0.0089,0.0121,0.0091,0.0093,0.0093,0.0057,0.0055,0.0093,0.0093,0.0094,0,0.0155,0.0174,0.0164,0.0179,0.0188,0.0164,0.0184,0.0176,0.0165,0.0167,0.0151,0.0128,0.011,0.0111,0.0115,0.0102,0.0076,0.0108,0.0096,0.0096,0.0096,0.0059,0.0056,0.0096,0.0095,0.0095,0.0095,0,0.0183,0.0199,0.0208,0.0223,0.0229,0.024,0.0234,0.0235,0.0224,0.0215,0.021,0.0179,0.0168,0.0158,0.0142,0.0138,0.0116,0.0101,0.0087,0.01,0.006,0.0056,0.0099,0.0098,0.0097,0.0097,0,0,0.0194,0.0223,0.0227,0.025,0.0256,0.0268,0.0279,0.0287,0.0303,0.0275,0.0288,0.0258,0.0236,0.0226,0.0199,0.0174,0.0145,0.0143,0.014,0.011,0.0073,0.0052,0.0044,0.0126,0.0126,0.0126,0.0042,0,0.022,0.0265,0.0271,0.0315,0.034,0.0333,0.0353,0.0355,0.0347,0.0351,0.0309,0.0309,0.0264,0.0262,0.0227,0.017,0.0136,0.0169,0.0063,0.0059,0.0041,0.004,0.0125,0.0039,0.0037,0.0037,0.0036,0,0.0247,0.0279,0.0329,0.0378,0.0388,0.041,0.0443,0.0459,0.0451,0.0446,0.0424,0.0387,0.0349,0.0309,0.0208,0.023,0.0158,0.0105,0.01,0.0065,0.0031,0.0023,0.0027,0.0028,0.0029,0.0029,0.003,0,0.0269,0.0321,0.0367,0.0383,0.0427,0.0453,0.0477,0.0488,0.0522,0.0508,0.0519,0.0455,0.0438,0.0335,0.0216,0.0213,0.0097,0.0077,-0.0014,-0.0017,0.0008,0.0008,0.0003,0.0003,0.0003,0.0003,0.0003,0,0.0297,0.0336,0.0385,0.0413,0.048,0.0496,0.0566,0.0572,0.0603,0.0648,0.0575,0.0581,0.0445,0.0358,0.0235,0.0096,0.0106,-0.0008,-0.0038,0.0026,0.0029,0.0004,0.0005,-0.0,0.0001,0.0001,0.0002,0,0.0312,0.034,0.0405,0.0468,0.0494,0.0544,0.064,0.0696,0.0701,0.0754,0.0753,0.0685,0.0565,0.0409,0.0245,0.0137,-0.0004,-0.0058,0.002,-0.0004,-0.0107,-0.0102,-0.0167,-0.0168,-0.017,-0.0171,-0.0171,0,0.0323,0.0356,0.0448,0.0502,0.0536,0.0621,0.0693,0.0743,0.0807,0.0815,0.0844,0.0744,0.067,0.0427,0.0251,0.0003,-0.0033,-0.0111,-0.011,-0.0101,-0.0123,-0.0117,-0.0111,-0.0173,-0.0174,-0.0174,-0.0174,0,0.0349,0.0381,0.0439,0.0551,0.0638,0.0743,0.084,0.0891,0.0946,0.0949,0.0923,0.0783,0.0645,0.0438,0.0244,0.0067,-0.0064,-0.0124,-0.0123,-0.0123,-0.0109,-0.0129,-0.0122,-0.0178,-0.0178,-0.0177,-0.0177,0,0.0372,0.0417,0.0501,0.0601,0.0713,0.0827,0.088,0.0955,0.1011,0.1008,0.0998,0.0828,0.0741,0.0471,0.0292,0.0111,0.0061,0.0002,-0.0005,-0.0003,0.0063,0.0105,0.008,0,0,0,0,0,0.0395,0.0456,0.0551,0.0669,0.0782,0.0854,0.0967,0.1013,0.1053,0.105,0.1026,0.089,0.0619,0.0506,0.0323,0.0253,0.0019,0.003,-0.0055,-0.0201,-0.0196,-0.015,0,0,0,0,0,0,0.0415,0.05,0.0552,0.0707,0.0797,0.0937,0.1011,0.1044,0.1043,0.1039,0.0907,0.0834,0.0579,0.0724,0.0316,0.026,0.0178,-0.0094,-0.0099,-0.0203,-0.0199,-0.0195,-0.0147,0,0,0,0,0]}]]